This demonstration page uses our WeatherBlox Daily Observations layout. Learn more.

Left ArrowRight Arrow

39.51506, -84.39828

Hourly Observations for August 27, 2021

Temp ( °F °C ) Dew Point ( °F °C ) Humidity (%) Winds ( mph kmh ) Pressure ( in mb ) Visibility ( mi km ) Precip ( " mm )
12:15 am 00:15 Clear 72 22 N/A N/A ENE 3 6 30.13 1020 10 16 N/A
12:35 am 00:35 Clear 70 21 N/A N/A N N/A 30.14 1021 7 11 N/A
12:55 am 00:55 Clear 70 21 N/A N/A NNE 3 6 30.13 1020 10 16 N/A
1:15 am 01:15 Hazy 70 21 N/A N/A N N/A 30.12 1020 5 8 N/A
1:35 am 01:35 Hazy 70 21 N/A N/A N N/A 30.12 1020 5 8 N/A
1:55 am 01:55 Hazy 70 21 N/A N/A N N/A 30.12 1020 5 8 N/A
2:15 am 02:15 Hazy 70 21 N/A N/A N N/A 30.11 1020 5 8 N/A
2:35 am 02:35 Hazy 70 21 N/A N/A N N/A 30.11 1020 5 8 N/A
2:55 am 02:55 Hazy 70 21 N/A N/A N N/A 30.11 1020 7 11 N/A
3:15 am 03:15 Hazy 68 20 N/A N/A N N/A 30.11 1020 4 6 N/A
3:35 am 03:35 Clear with Mist and Fog 68 20 N/A N/A N N/A 30.11 1020 4 6 N/A
3:55 am 03:55 Hazy 68 20 N/A N/A N N/A 30.11 1020 5 8 N/A
4:15 am 04:15 Hazy 68 20 N/A N/A N N/A 30.10 1019 7 11 N/A
4:35 am 04:35 Clear with Mist and Fog 68 20 N/A N/A N N/A 30.10 1019 3 5 N/A
4:55 am 04:55 Hazy 68 20 N/A N/A N 3 6 30.10 1019 5 8 N/A
5:15 am 05:15 Hazy 68 20 N/A N/A N N/A 30.10 1019 5 8 N/A
5:35 am 05:35 Mostly Cloudy with Mist and Fog 68 20 N/A N/A N N/A 30.09 1019 2 2 N/A
5:55 am 05:55 Mostly Cloudy with Mist and Fog 68 20 N/A N/A N N/A 30.10 1019 1 2 N/A
6:15 am 06:15 Hazy 66 19 N/A N/A N N/A 30.10 1019 5 8 N/A
6:35 am 06:35 Cloudy with Mist and Fog 66 19 N/A N/A N N/A 30.11 1020 1 1 N/A
6:55 am 06:55 Cloudy with Fog 68 20 N/A N/A N N/A 30.10 1019 N/A N/A
7:15 am 07:15 Cloudy with Fog 68 20 N/A N/A N N/A 30.10 1019 N/A N/A
7:35 am 07:35 Cloudy with Fog 68 20 N/A N/A N N/A 30.11 1020 0 0 N/A
7:55 am 07:55 Mostly Cloudy with Mist and Fog 68 20 N/A N/A N N/A 30.11 1020 3 4 N/A
8:15 am 08:15 Hazy 70 21 N/A N/A N N/A 30.11 1020 5 8 N/A
8:35 am 08:35 Hazy 70 21 N/A N/A N N/A 30.12 1020 7 11 N/A
8:55 am 08:55 Hazy 72 22 N/A N/A N N/A 30.12 1020 7 11 N/A
9:15 am 09:15 Sunny 72 22 N/A N/A N N/A 30.13 1020 10 16 N/A
9:35 am 09:35 Sunny 73 22.8 72 22 95 95 N N/A 30.13 1020 10 16 N/A
9:55 am 09:55 Sunny 74 23.6 73 22.5 94 94 N N/A 30.13 1020 10 16 N/A
10:15 am 10:15 Sunny with Mist and Fog 76 24.3 73 22.9 92 92 N N/A 30.12 1020 3 4 N/A
10:35 am 10:35 Mostly Cloudy with Haze 77 25.1 72 22.3 85 85 N N/A 30.12 1020 1 2 N/A
10:55 am 10:55 Hazy 81 27 73 22.9 78 78 N N/A 30.12 1020 4 6 N/A
11:15 am 11:15 Mostly Cloudy with Haze 83 28.1 72 22.2 70 70 S 6 9 30.12 1020 2 3 N/A
11:35 am 11:35 Hazy 83 28.6 73 22.7 70 70 S 5 7 30.11 1020 7 11 N/A
11:55 am 11:55 Hazy 85 29.3 73 22.9 68 68 N N/A 30.11 1020 5 8 N/A
12:15 pm 12:15 Sunny 86 30 75 23.9 70 70 N N/A 30.11 1020 10 16 N/A
12:35 pm 12:35 Sunny 86 30.2 75 23.8 69 69 N N/A 30.10 1019 10 16 N/A
12:55 pm 12:55 Sunny 87 30.8 75 23.8 66 66 N N/A 30.10 1019 10 16 N/A
1:15 pm 13:15 Sunny 88 31.1 74 23.4 64 64 WSW 5 7 30.10 1019 10 16 N/A
1:35 pm 13:35 Sunny 89 31.6 73 22.7 59 59 W 3 6 30.09 1019 10 16 N/A
1:55 pm 13:55 Sunny 90 32 72 22.3 56 56 WNW 5 7 30.08 1019 10 16 N/A
2:15 pm 14:15 Sunny 91 32.5 71 21.8 53 53 WNW 3 6 30.07 1018 10 16 N/A
2:35 pm 14:35 Partly Cloudy 90 32.4 71 21.9 54 54 WNW 5 7 30.06 1018 10 16 N/A
2:55 pm 14:55 Mostly Cloudy 90 32.2 71 21.7 54 54 N N/A 30.05 1018 10 16 N/A
3:15 pm 15:15 Partly Cloudy 91 32.6 71 21.9 53 53 ENE 6 9 30.04 1017 10 16 N/A
3:35 pm 15:35 Mostly Cloudy 90 32 72 22.3 56 56 ENE 6 9 30.03 1017 10 16 N/A
3:55 pm 15:55 Mostly Cloudy 89 31.4 74 23.2 62 62 ENE 6 9 30.03 1017 10 16 N/A
4:15 pm 16:15 Mostly Cloudy 90 32.1 72 22.4 57 57 NE 6 9 30.02 1016 10 16 N/A
4:35 pm 16:35 Mostly Cloudy 91 32.7 73 22.5 55 55 NNE 5 7 30.02 1016 10 16 N/A
4:55 pm 16:55 Cloudy 90 32 72 22.1 56 56 NE 5 7 30.02 1017 10 16 N/A
5:15 pm 17:15 Cloudy 89 31.7 73 22.7 59 59 NE 3 6 30.02 1017 10 16 N/A
5:35 pm 17:35 Cloudy 90 32.3 73 22.5 56 56 E 6 9 30.02 1016 10 16 N/A
5:55 pm 17:55 Mostly Cloudy 89 31.4 71 21.8 57 57 SSE 6 9 30.02 1017 10 16 N/A
6:15 pm 18:15 Mostly Cloudy 78 25.8 72 22.1 80 80 SW 21 33 30.06 1018 10 16 N/A
6:35 pm 18:35 Cloudy with Strong Thunderstorms 74 23.3 68 19.8 81 81 SSE 23 37 30.09 1019 2 2 0.08 2.03
6:55 pm 18:55 Cloudy with Nearby Thunderstorms 74 23.3 72 22.4 95 95 S 13 20 30.13 1020 4 6 0.20 5.08
7:15 pm 19:15 Mostly Cloudy 74 23.5 74 23.2 98 98 SW 14 22 30.12 1020 10 16 0.09 2.29
7:35 pm 19:35 Partly Cloudy 73 23 73 23 100 100 W 8 13 30.11 1020 10 16 0.16 4.06
7:55 pm 19:55 Sunny with Light Rain 73 23 73 22.8 99 99 SW 9 15 30.11 1020 10 16 0.20 5.08
8:15 pm 20:15 Sunny with Light Rain 73 23 73 23 100 100 SSW 9 15 30.11 1020 10 16 0.02 0.51
8:35 pm 20:35 Partly Cloudy 73 23 N/A N/A N N/A 30.12 1020 10 16 0.03 0.76
8:55 pm 20:55 Clear 73 23 N/A N/A N N/A 30.12 1020 10 16 0.04 1.02
9:15 pm 21:15 Clear 73 23 N/A N/A SW 5 7 30.13 1020 10 16 N/A
9:35 pm 21:35 Partly Cloudy with Light Rain 73 23 N/A N/A SW 5 7 30.13 1020 10 16 N/A
9:55 pm 21:55 Clear 73 23 N/A N/A S 3 6 30.13 1020 10 16 N/A
10:15 pm 22:15 Clear 73 23 N/A N/A ENE 3 6 30.14 1021 10 16 N/A
10:35 pm 22:35 Clear 73 23 N/A N/A N N/A 30.14 1021 10 16 N/A
10:55 pm 22:55 Clear 73 23 N/A N/A SSE 3 6 30.14 1021 7 11 N/A
11:15 pm 23:15 Clear 73 23 N/A N/A S 5 7 30.13 1020 10 16 N/A
11:35 pm 23:35 Clear 73 23 N/A N/A N N/A 30.13 1020 10 16 N/A
11:55 pm 23:55 Clear 73 23 N/A N/A SW 5 7 30.13 1020 10 16 N/A

Powered by AerisWeather